Emporia, KS

5:15 AM CDT on May 20, 2018 (GMT -0500)
Emporia Municipal

Weather History for KEMP - February, 2014

Change the Weather History Date:

Tuesday, February 18, 2014

  Actual Average Record
Temperature  
Mean Temperature 53 °F 36 °F  
Max Temperature 67 °F 47 °F 77 °F (2016)
Min Temperature 39 °F 25 °F 3 °F (2006)
Degree Days  
Heating Degree Days 12 29  
Month to date heating degree days 734 562  
Since 1 July heating degree days 4005 3550  
Cooling Degree Days 0 0  
Month to date cooling degree days 0 0  
Year to date cooling degree days 0 0  
Growing Degree Days 2 (Base 50)    
Moisture  
Dew Point 27 °F    
Average Humidity 42    
Maximum Humidity 59    
Minimum Humidity 24    
Precipitation  
Precipitation 0.00 in 0.05 in 0.17 in (1999)
Month to date precipitation 0.12 0.79  
Year to date precipitation 0.32 1.42  
Sea Level Pressure  
Sea Level Pressure 29.86 in    
Wind  
Wind Speed 14 mph (SW)    
Max Wind Speed 33 mph    
Max Gust Speed 42 mph    
Visibility 10 miles    
Events      
T = Trace of Precipitation, MM = Missing Value Source: NWS Daily Summary

Daily Weather History Graph

Daily Weather History Graph

Search for Another Location

Airport or City:

Astronomy

Feb. 18, 2014 Rise Set
Actual Time 7:11 AM CST 6:06 PM CST
Civil Twilight 6:44 AM CST 6:33 PM CST
Nautical Twilight 6:13 AM CST 7:04 PM CST
Astronomical Twilight 5:43 AM CST 7:34 PM CST
Moon 9:57 PM CST (2/18) 8:47 AM CST (2/18)
Length of Visible Light 11h 48m
Length of Day
10h 54m
Waning Gibbous, 87% of the Moon is Illuminated
Feb 18
Waning Gibbous
Feb 22
Last Quarter
Mar 1
New
Mar 8
First Quarter
Mar 16
Full

Hourly Weather History & Observations

Time (CST) Temp. Windchill Dew Point Humidity Pressure Visibility Wind Dir Wind Speed Gust Speed Precip Events Conditions
12:53 AM 45.0 °F 40.1 °F 25.0 °F 46% 29.99 in 10.0 mi SSW 9.2 mph - N/A   Clear
1:53 AM 42.1 °F 36.1 °F 25.0 °F 51% 29.96 in 10.0 mi South 10.4 mph - N/A   Clear
2:53 AM 43.0 °F 36.0 °F 25.0 °F 49% 29.93 in 10.0 mi South 13.8 mph - N/A   Clear
3:53 AM 45.0 °F 38.2 °F 26.1 °F 48% 29.91 in 10.0 mi SSW 15.0 mph - N/A   Clear
4:53 AM 43.0 °F 36.4 °F 26.1 °F 51% 29.89 in 10.0 mi South 12.7 mph - N/A   Clear
5:53 AM 43.0 °F 36.0 °F 26.1 °F 51% 29.85 in 10.0 mi South 13.8 mph - N/A   Clear
6:53 AM 39.9 °F 31.8 °F 26.1 °F 58% 29.84 in 10.0 mi South 15.0 mph - N/A   Clear
7:53 AM 41.0 °F 32.8 °F 26.1 °F 55% 29.83 in 10.0 mi South 16.1 mph - N/A   Clear
8:53 AM 44.1 °F 36.8 °F 27.0 °F 51% 29.85 in 10.0 mi South 16.1 mph - N/A   Clear
9:53 AM 54.0 °F - 26.1 °F 34% 29.84 in 10.0 mi SSW 26.5 mph 36.8 mph N/A   Clear
10:53 AM 57.9 °F - 27.0 °F 31% 29.80 in 10.0 mi North - - N/A   Clear
11:53 AM 61.0 °F - 26.1 °F 26% 29.78 in 10.0 mi SW 27.6 mph 38.0 mph N/A   Clear
12:53 PM 63.0 °F - 27.0 °F 26% 29.75 in 10.0 mi SW 23.0 mph 35.7 mph N/A   Clear
1:53 PM 64.9 °F - 27.0 °F 24% 29.76 in 10.0 mi WSW 18.4 mph 26.5 mph N/A   Clear
2:53 PM 64.9 °F - 27.0 °F 24% 29.76 in 10.0 mi WSW 15.0 mph 24.2 mph N/A   Clear
3:53 PM 66.0 °F - 28.9 °F 25% 29.75 in 10.0 mi West 10.4 mph 19.6 mph N/A   Clear
4:53 PM 66.0 °F - 28.9 °F 25% 29.77 in 10.0 mi West 8.1 mph - N/A   Clear
5:53 PM 57.9 °F - 28.9 °F 33% 29.79 in 10.0 mi SW 8.1 mph - N/A   Clear
6:53 PM 51.1 °F - 30.9 °F 46% 29.83 in 10.0 mi SW 9.2 mph - N/A   Partly Cloudy
7:53 PM 55.9 °F - 26.1 °F 32% 29.89 in 10.0 mi NW 11.5 mph - N/A   Clear
8:53 PM 53.1 °F - 26.1 °F 35% 29.94 in 10.0 mi NW 11.5 mph - N/A   Clear
9:53 PM 50.0 °F - 27.0 °F 41% 29.97 in 10.0 mi North 12.7 mph - N/A   Clear
10:53 PM 46.0 °F 43.1 °F 28.0 °F 50% 29.99 in 10.0 mi North 5.8 mph - N/A   Clear
11:53 PM 42.1 °F 40.2 °F 27.0 °F 55% 30.00 in 10.0 mi West 3.5 mph - N/A   Clear